Glendive, MT

5:27 AM MST on February 25, 2017 (GMT -0700)
Dawson Community

Weather History for KGDV - July, 2013

Change the Weather History Date:

Saturday, July 20, 2013

  Actual Average Record
Temperature  
Mean Temperature 68 °F -  
Max Temperature 80 °F 84 °F 98 °F (2007)
Min Temperature 57 °F 57 °F 51 °F (2000)
Cooling Degree Days 4    
Growing Degree Days 18 (Base 50)    
Moisture  
Dew Point 56 °F    
Average Humidity 66    
Maximum Humidity 88    
Minimum Humidity 45    
Precipitation  
Precipitation 0.00 in - - ()
Sea Level Pressure  
Sea Level Pressure 29.96 in    
Wind  
Wind Speed 10 mph (ENE)    
Max Wind Speed 17 mph    
Max Gust Speed 24 mph    
Visibility 10 miles    
Events Thunderstorm    
Averages and records for this station are not official NWS values.
T = Trace of Precipitation, MM = Missing Value Source: NWS Daily Summary

Daily Weather History Graph

Daily Weather History Graph

Search for Another Location

Airport or City:

Trip Planner

Search our weather history database for the weather conditions in past years. The results will help you decide how hot, cold, wet, or windy it might be!

Date:

Astronomy

Jul. 20, 2013 Rise Set
Actual Time 5:24 AM MDT 8:46 PM MDT
Civil Twilight 4:46 AM MDT 9:23 PM MDT
Nautical Twilight 3:57 AM MDT 10:12 PM MDT
Astronomical Twilight 2:53 AM MDT 11:15 PM MDT
Moon 6:51 PM MDT (7/20) 3:07 AM MDT (7/20)
Length of Visible Light 16h 36m
Length of Day
15h 21m
Waxing Gibbous, 94% of the Moon is Illuminated
Jul 20
Waxing Gibbous
Jul 22
Full
Jul 29
Last Quarter
Aug 6
New
Aug 14
First Quarter

Hourly Weather History & Observations

Time (MDT) Temp. Heat Index Dew Point Humidity Pressure Visibility Wind Dir Wind Speed Gust Speed Precip Events Conditions
12:15 AM 64.4 °F - 55.4 °F 73% 30.01 in 10.0 mi NNE 12.7 mph - N/A   Mostly Cloudy
12:35 AM 64.4 °F - 55.4 °F 73% 30.02 in 10.0 mi NNE 16.1 mph - N/A   Mostly Cloudy
12:55 AM 62.6 °F - 53.6 °F 72% 30.01 in 10.0 mi NE 13.8 mph - N/A   Partly Cloudy
1:15 AM 60.8 °F - 53.6 °F 77% 30.01 in 10.0 mi ENE 13.8 mph - N/A   Clear
1:35 AM 60.8 °F - 53.6 °F 77% 30.00 in 10.0 mi East 9.2 mph - N/A   Clear
1:55 AM 59.0 °F - 53.6 °F 82% 30.01 in 10.0 mi ENE 6.9 mph - N/A   Clear
2:15 AM 59.0 °F - 53.6 °F 82% 30.01 in 10.0 mi East 5.8 mph - N/A   Clear
2:35 AM 57.2 °F - 53.6 °F 88% 30.00 in 10.0 mi East 6.9 mph - N/A   Partly Cloudy
2:55 AM 57.2 °F - 53.6 °F 88% 30.00 in 10.0 mi NE 9.2 mph - N/A   Mostly Cloudy
3:15 AM 59.0 °F - 53.6 °F 82% 30.00 in 10.0 mi NE 8.1 mph - N/A   Scattered Clouds
3:35 AM 59.0 °F - 53.6 °F 82% 29.99 in 10.0 mi NE 6.9 mph - N/A   Mostly Cloudy
3:55 AM 59.0 °F - 53.6 °F 82% 29.99 in 10.0 mi NE 8.1 mph - N/A   Mostly Cloudy
4:15 AM 59.0 °F - 53.6 °F 82% 30.00 in 10.0 mi NE 8.1 mph - N/A   Mostly Cloudy
4:35 AM 60.8 °F - 53.6 °F 77% 29.99 in 10.0 mi East 6.9 mph - N/A   Partly Cloudy
4:56 AM 60.8 °F - 53.6 °F 77% 29.99 in 10.0 mi East 6.9 mph - N/A   Partly Cloudy
5:15 AM 59.0 °F - 53.6 °F 82% 29.99 in 10.0 mi ENE 4.6 mph - N/A   Clear
5:35 AM 60.8 °F - 53.6 °F 77% 29.99 in 10.0 mi ESE 5.8 mph - N/A   Scattered Clouds
5:55 AM 59.0 °F - 53.6 °F 82% 29.99 in 10.0 mi Calm Calm - N/A   Partly Cloudy
6:15 AM 57.2 °F - 53.6 °F 88% 29.99 in 10.0 mi North 5.8 mph - N/A   Scattered Clouds
6:35 AM 59.0 °F - 53.6 °F 82% 29.99 in 10.0 mi NNE 4.6 mph - N/A   Mostly Cloudy
6:55 AM 60.8 °F - 53.6 °F 77% 29.99 in 10.0 mi NE 4.6 mph - N/A   Scattered Clouds
7:15 AM 60.8 °F - 53.6 °F 77% 29.99 in 10.0 mi ENE 4.6 mph - N/A   Scattered Clouds
7:35 AM 62.6 °F - 53.6 °F 72% 30.00 in 10.0 mi ENE 4.6 mph - N/A   Mostly Cloudy
7:55 AM 64.4 °F - 53.6 °F 68% 30.00 in 10.0 mi East 5.8 mph - N/A   Scattered Clouds
8:15 AM 64.4 °F - 55.4 °F 73% 30.01 in 10.0 mi ENE 5.8 mph - N/A   Partly Cloudy
8:35 AM 64.4 °F - 55.4 °F 73% 30.01 in 10.0 mi ENE 5.8 mph - N/A   Partly Cloudy
8:55 AM 64.4 °F - 55.4 °F 73% 30.01 in 10.0 mi NE 6.9 mph - N/A   Partly Cloudy
9:15 AM 66.2 °F - 55.4 °F 68% 30.00 in 10.0 mi ENE 11.5 mph - N/A   Clear
9:35 AM 69.8 °F - 57.2 °F 64% 30.00 in 10.0 mi NE 12.7 mph - N/A   Clear
9:55 AM 69.8 °F - 55.4 °F 60% 30.00 in 10.0 mi ENE 13.8 mph - N/A   Clear
10:15 AM 69.8 °F - 57.2 °F 64% 30.01 in 10.0 mi NE 15.0 mph - N/A   Clear
10:35 AM 71.6 °F - 57.2 °F 60% 30.00 in 10.0 mi NE 13.8 mph - N/A   Clear
10:55 AM 71.6 °F - 57.2 °F 60% 30.00 in 10.0 mi ENE 16.1 mph - N/A   Clear
11:15 AM 71.6 °F - 57.2 °F 60% 30.00 in 10.0 mi NE 15.0 mph - N/A   Clear
11:35 AM 73.4 °F - 57.2 °F 57% 30.00 in 10.0 mi East 13.8 mph - N/A   Clear
11:55 AM 73.4 °F - 57.2 °F 57% 29.99 in 10.0 mi ENE 15.0 mph 21.9 mph N/A   Clear
12:15 PM 75.2 °F - 57.2 °F 53% 29.99 in 10.0 mi East 13.8 mph 21.9 mph N/A   Clear
12:35 PM 75.2 °F - 57.2 °F 53% 29.98 in 10.0 mi East 12.7 mph 24.2 mph N/A   Clear
12:55 PM 75.2 °F - 57.2 °F 53% 29.98 in 10.0 mi East 17.3 mph 20.7 mph N/A   Clear
1:15 PM 77.0 °F - 57.2 °F 50% 29.97 in 10.0 mi East 12.7 mph 23.0 mph N/A   Clear
1:35 PM 78.8 °F - 57.2 °F 47% 29.97 in 10.0 mi ENE 16.1 mph 19.6 mph N/A   Clear
1:55 PM 78.8 °F - 57.2 °F 47% 29.97 in 10.0 mi East 11.5 mph 16.1 mph N/A   Clear
2:15 PM 78.8 °F - 57.2 °F 47% 29.96 in 10.0 mi East 13.8 mph - N/A   Clear
2:35 PM 78.8 °F - 57.2 °F 47% 29.95 in 10.0 mi East 12.7 mph - N/A   Clear
2:55 PM 78.8 °F - 57.2 °F 47% 29.95 in 10.0 mi East 12.7 mph 17.3 mph N/A   Clear
3:15 PM 80.6 °F 80.8 °F 57.2 °F 45% 29.94 in 10.0 mi East 10.4 mph 16.1 mph N/A   Clear
3:35 PM 80.6 °F 80.8 °F 57.2 °F 45% 29.94 in 10.0 mi ENE 11.5 mph 17.3 mph N/A   Clear
4:35 PM 80.6 °F 80.8 °F 57.2 °F 45% 29.92 in 10.0 mi East 5.8 mph - N/A   Partly Cloudy
4:55 PM 80.6 °F 81.1 °F 59.0 °F 48% 29.91 in 10.0 mi East 10.4 mph - N/A   Clear
5:15 PM 80.6 °F 81.1 °F 59.0 °F 48% 29.92 in 10.0 mi East 6.9 mph - N/A   Scattered Clouds
5:35 PM 80.6 °F 81.1 °F 59.0 °F 48% 29.91 in 10.0 mi East 10.4 mph - N/A   Partly Cloudy
5:55 PM 80.6 °F 81.1 °F 59.0 °F 48% 29.91 in 10.0 mi East 10.4 mph 16.1 mph N/A   Clear
6:15 PM 80.6 °F 81.1 °F 59.0 °F 48% 29.91 in 10.0 mi East 11.5 mph - N/A   Clear
6:35 PM 80.6 °F 81.1 °F 59.0 °F 48% 29.90 in 10.0 mi East 12.7 mph - N/A   Clear
6:55 PM 80.6 °F 81.5 °F 60.8 °F 51% 29.90 in 10.0 mi East 13.8 mph - N/A   Clear
7:15 PM 78.8 °F - 59.0 °F 51% 29.89 in 10.0 mi East 11.5 mph 18.4 mph N/A   Clear
7:35 PM 77.0 °F - 59.0 °F 54% 29.89 in 10.0 mi East 11.5 mph - N/A   Clear
7:55 PM 75.2 °F - 60.8 °F 61% 29.90 in 8.0 mi ENE 16.1 mph - N/A Thunderstorm Clear
8:15 PM 73.4 °F - 60.8 °F 65% 29.91 in 5.0 mi ENE 13.8 mph - N/A Thunderstorm Clear
8:35 PM 71.6 °F - 60.8 °F 69% 29.92 in 10.0 mi ENE 12.7 mph - N/A   Clear
8:55 PM 71.6 °F - 60.8 °F 69% 29.91 in 10.0 mi ENE 11.5 mph - N/A   Clear
9:16 PM 71.6 °F - 59.0 °F 64% 29.92 in 10.0 mi ENE 9.2 mph - N/A   Clear
9:35 PM 69.8 °F - 59.0 °F 68% 29.92 in 10.0 mi ENE 9.2 mph - N/A   Clear
9:55 PM 69.8 °F - 59.0 °F 68% 29.92 in 10.0 mi East 9.2 mph - N/A   Clear
10:15 PM 68.0 °F - 59.0 °F 73% 29.92 in 10.0 mi East 9.2 mph - N/A   Clear
10:35 PM 66.2 °F - 59.0 °F 78% 29.92 in 10.0 mi East 9.2 mph - N/A   Clear
10:55 PM 66.2 °F - 57.2 °F 73% 29.91 in 10.0 mi ESE 9.2 mph - N/A   Clear
11:15 PM 66.2 °F - 57.2 °F 73% 29.91 in 10.0 mi ESE 6.9 mph - N/A   Clear
11:36 PM 66.2 °F - 57.2 °F 73% 29.90 in 10.0 mi SE 8.1 mph - N/A   Clear
11:55 PM 64.4 °F - 57.2 °F 77% 29.90 in 10.0 mi SSE 5.8 mph - N/A   Clear